BTK6564 WIII-WARA

Flight info

Callsign BTK6564
Flight time 1h 13m
Altitude 35000
Route WIII/25R CA W45 SBR
Aircraft A320/M-SDE3FGHIRWY/LB1

Departure

Time 2026-05-04 07:54
Airport Soekarno-Hatta International Airport (WIII)

Arrival

Time 2026-05-04 09:07
Airport Abdul Rachman Saleh Airport (WARA)
Time Latitude Longitude Altitude Speed Heading
2026-05-04 07:20 -6.12452 106.64929 38 ft 0 kts 69°
2026-05-04 07:38 -6.12452 106.64928 38 ft 2 kts 69°
2026-05-04 07:39 -6.12461 106.64904 36 ft 4 kts 69°
2026-05-04 07:39 -6.12471 106.64879 38 ft 4 kts 69°
2026-05-04 07:39 -6.12479 106.64859 38 ft 4 kts 58°
2026-05-04 07:39 -6.12496 106.64842 38 ft 4 kts
2026-05-04 07:40 -6.12519 106.64847 38 ft 3 kts 339°
2026-05-04 07:40 -6.12521 106.64848 38 ft 0 kts 339°
2026-05-04 07:43 -6.12520 106.64848 38 ft 1 kts 339°
2026-05-04 07:43 -6.12496 106.64838 38 ft 4 kts 339°
2026-05-04 07:43 -6.12485 106.64834 38 ft 0 kts 339°
2026-05-04 07:44 -6.12464 106.64826 38 ft 8 kts 339°
2026-05-04 07:44 -6.12385 106.64795 36 ft 14 kts 339°
2026-05-04 07:44 -6.12305 106.64764 38 ft 11 kts 339°
2026-05-04 07:45 -6.12249 106.64743 38 ft 6 kts 342°
2026-05-04 07:45 -6.12205 106.64741 38 ft 10 kts 358°
2026-05-04 07:45 -6.12117 106.64716 38 ft 14 kts 338°
2026-05-04 07:45 -6.12021 106.64678 39 ft 15 kts 343°
2026-05-04 07:46 -6.11960 106.64727 39 ft 10 kts 68°
2026-05-04 07:46 -6.11935 106.64789 39 ft 10 kts 68°
2026-05-04 07:46 -6.11905 106.64863 39 ft 13 kts 68°
2026-05-04 07:46 -6.11869 106.64955 39 ft 14 kts 68°
2026-05-04 07:47 -6.11834 106.65042 38 ft 14 kts 68°
2026-05-04 07:47 -6.11794 106.65142 39 ft 17 kts 68°
2026-05-04 07:47 -6.11748 106.65258 39 ft 19 kts 68°
2026-05-04 07:49 -6.11408 106.66111 37 ft 18 kts 68°
2026-05-04 07:49 -6.11365 106.66219 39 ft 15 kts 68°
2026-05-04 07:49 -6.11326 106.66315 39 ft 15 kts 68°
2026-05-04 07:50 -6.11290 106.66407 39 ft 12 kts 68°
2026-05-04 07:50 -6.11257 106.66490 38 ft 15 kts 68°
2026-05-04 07:50 -6.11217 106.66590 38 ft 14 kts 68°
2026-05-04 07:50 -6.11185 106.66669 38 ft 10 kts 68°
2026-05-04 07:51 -6.11158 106.66738 37 ft 12 kts 68°
2026-05-04 07:51 -6.11131 106.66805 38 ft 13 kts 68°
2026-05-04 07:51 -6.11097 106.66889 38 ft 11 kts 68°
2026-05-04 07:51 -6.11070 106.66950 37 ft 10 kts 55°
2026-05-04 07:52 -6.10999 106.66979 39 ft 10 kts 353°
2026-05-04 07:52 -6.10954 106.66944 39 ft 9 kts 303°
2026-05-04 07:52 -6.10907 106.66887 38 ft 9 kts 310°
2026-05-04 07:52 -6.10916 106.66853 38 ft 5 kts 240°
2026-05-04 07:53 -6.10925 106.66829 38 ft 1 kts 249°
2026-05-04 07:54 -6.11942 106.60921 2547 ft 169 kts 289°
2026-05-04 07:55 -6.11574 106.59806 3145 ft 168 kts 288°
2026-05-04 07:55 -6.11195 106.58622 3447 ft 188 kts 289°
2026-05-04 07:55 -6.10768 106.57295 3675 ft 211 kts 289°
2026-05-04 07:55 -6.10460 106.56336 3806 ft 227 kts 289°
2026-05-04 07:56 -6.09953 106.54743 4118 ft 251 kts 288°
2026-05-04 07:56 -6.09215 106.53075 4511 ft 272 kts 307°
2026-05-04 07:56 -6.07809 106.51791 5183 ft 279 kts 332°
2026-05-04 07:56 -6.05969 106.51211 5944 ft 281 kts 357°
2026-05-04 07:57 -6.04033 106.51478 6724 ft 283 kts 22°
2026-05-04 07:57 -6.02329 106.52454 7521 ft 285 kts 41°
2026-05-04 07:57 -6.01019 106.53947 8314 ft 286 kts 60°
2026-05-04 07:57 -6.00256 106.55790 9103 ft 288 kts 77°
2026-05-04 07:58 -5.99868 106.58430 10108 ft 290 kts 83°
2026-05-04 07:58 -5.99680 106.59807 10490 ft 300 kts 83°
2026-05-04 07:58 -5.99385 106.61955 10689 ft 322 kts 82°
2026-05-04 07:58 -5.99070 106.64254 10891 ft 342 kts 82°
2026-05-04 07:59 -5.98735 106.66653 11416 ft 350 kts 82°
2026-05-04 07:59 -5.98391 106.69092 12040 ft 355 kts 82°
2026-05-04 07:59 -5.98040 106.71562 12675 ft 358 kts 82°
2026-05-04 07:59 -5.97684 106.74050 13320 ft 360 kts 82°
2026-05-04 08:00 -5.97337 106.76548 13894 ft 362 kts 82°
2026-05-04 08:00 -5.96992 106.79044 14485 ft 366 kts 82°
2026-05-04 08:00 -5.96707 106.81643 15101 ft 373 kts 89°
2026-05-04 08:02 -6.02870 106.99080 18744 ft 392 kts 112°
2026-05-04 08:02 -6.03945 107.01613 19236 ft 396 kts 112°
2026-05-04 08:02 -6.05028 107.04161 19712 ft 398 kts 112°
2026-05-04 08:03 -6.06120 107.06728 20154 ft 401 kts 112°
2026-05-04 08:03 -6.07219 107.09304 20594 ft 403 kts 112°
2026-05-04 08:03 -6.08307 107.11871 21018 ft 405 kts 112°
2026-05-04 08:03 -6.09414 107.14482 21414 ft 408 kts 112°
2026-05-04 08:04 -6.10529 107.17115 21810 ft 411 kts 112°
2026-05-04 08:04 -6.11650 107.19762 22188 ft 413 kts 112°
2026-05-04 08:04 -6.12778 107.22425 22569 ft 415 kts 112°
2026-05-04 08:04 -6.13913 107.25100 22936 ft 418 kts 112°
2026-05-04 08:05 -6.15059 107.27794 23303 ft 420 kts 112°
2026-05-04 08:05 -6.16208 107.30503 23652 ft 422 kts 112°
2026-05-04 08:05 -6.17358 107.33220 23992 ft 424 kts 112°
2026-05-04 08:05 -6.18513 107.35957 24312 ft 427 kts 112°
2026-05-04 08:06 -6.19676 107.38709 24633 ft 429 kts 112°
2026-05-04 08:06 -6.20846 107.41477 24954 ft 431 kts 112°
2026-05-04 08:06 -6.22019 107.44256 25258 ft 433 kts 112°
2026-05-04 08:06 -6.23199 107.47051 25559 ft 436 kts 112°
2026-05-04 08:08 -6.31652 107.67021 27533 ft 451 kts 112°
2026-05-04 08:08 -6.32880 107.69930 27779 ft 453 kts 112°
2026-05-04 08:10 -6.42891 107.93659 29586 ft 468 kts 111°
2026-05-04 08:11 -6.44149 107.96643 29798 ft 470 kts 111°
2026-05-04 08:11 -6.46709 108.02709 30267 ft 472 kts 112°
2026-05-04 08:11 -6.48006 108.05737 30561 ft 472 kts 112°
2026-05-04 08:12 -6.49319 108.08758 30857 ft 471 kts 112°
2026-05-04 08:12 -6.50638 108.11768 31150 ft 470 kts 112°
2026-05-04 08:12 -6.51958 108.14775 31452 ft 470 kts 112°
2026-05-04 08:12 -6.53273 108.17782 31746 ft 469 kts 112°
2026-05-04 08:13 -6.54578 108.20783 32033 ft 468 kts 112°
2026-05-04 08:13 -6.55876 108.23786 32329 ft 468 kts 112°
2026-05-04 08:13 -6.57174 108.26785 32631 ft 467 kts 112°
2026-05-04 08:13 -6.58473 108.29778 32914 ft 467 kts 112°
2026-05-04 08:14 -6.59766 108.32772 33200 ft 466 kts 112°
2026-05-04 08:14 -6.61056 108.35762 33487 ft 466 kts 112°
2026-05-04 08:14 -6.62345 108.38751 33768 ft 465 kts 112°
2026-05-04 08:16 -6.70437 108.59872 34860 ft 461 kts 98°
2026-05-04 08:16 -6.71441 108.66250 34860 ft 462 kts 98°
2026-05-04 08:17 -6.72464 108.72621 34850 ft 462 kts 98°
2026-05-04 08:17 -6.73495 108.79004 34848 ft 462 kts 98°
2026-05-04 08:19 -6.77583 109.04544 34851 ft 462 kts 98°
2026-05-04 08:20 -6.78594 109.10927 34851 ft 462 kts 98°
2026-05-04 08:20 -6.79595 109.17318 34852 ft 462 kts 98°
2026-05-04 08:21 -6.80543 109.23720 34852 ft 462 kts 97°
2026-05-04 08:21 -6.81483 109.30123 34850 ft 462 kts 98°
2026-05-04 08:22 -6.82435 109.36526 34847 ft 463 kts 98°
2026-05-04 08:24 -6.86259 109.62135 34845 ft 463 kts 98°
2026-05-04 08:24 -6.87213 109.68537 34843 ft 463 kts 98°
2026-05-04 08:25 -6.88163 109.74937 34840 ft 463 kts 98°
2026-05-04 08:25 -6.89106 109.81346 34842 ft 463 kts 98°
2026-05-04 08:27 -6.92892 110.06971 34842 ft 463 kts 98°
2026-05-04 08:28 -6.93833 110.13341 34840 ft 463 kts 98°
2026-05-04 08:28 -6.94782 110.19770 34840 ft 463 kts 98°
2026-05-04 08:29 -6.95727 110.26174 34839 ft 463 kts 98°
2026-05-04 08:31 -6.97723 110.51952 34840 ft 463 kts 90°
2026-05-04 08:33 -6.98161 110.76703 34839 ft 463 kts 90°
2026-05-04 08:35 -6.98611 111.02621 34839 ft 463 kts 90°
2026-05-04 08:35 -6.98726 111.09101 34838 ft 463 kts 90°
2026-05-04 08:37 -6.99101 111.31789 34840 ft 463 kts 90°
2026-05-04 08:38 -6.99210 111.38274 34841 ft 463 kts 90°
2026-05-04 08:38 -7.00052 111.44682 34833 ft 463 kts 105°
2026-05-04 08:40 -7.06833 111.68622 34833 ft 465 kts 105°
2026-05-04 08:41 -7.08907 111.75935 34835 ft 465 kts 105°
2026-05-04 08:41 -7.10384 111.81142 34835 ft 465 kts 105°
2026-05-04 08:42 -7.12151 111.87405 34834 ft 465 kts 105°
2026-05-04 08:42 -7.13919 111.93675 34545 ft 467 kts 105°
2026-05-04 08:42 -7.14808 111.96820 33991 ft 466 kts 105°
2026-05-04 08:43 -7.15696 111.99963 33442 ft 467 kts 105°
2026-05-04 08:43 -7.16584 112.03109 32902 ft 467 kts 105°
2026-05-04 08:43 -7.17472 112.06256 32337 ft 468 kts 105°
2026-05-04 08:43 -7.18362 112.09407 31798 ft 468 kts 105°
2026-05-04 08:44 -7.19253 112.12560 31243 ft 468 kts 105°
2026-05-04 08:44 -7.20142 112.15712 30693 ft 466 kts 105°
2026-05-04 08:46 -7.32938 112.32385 23872 ft 425 kts 147°
2026-05-04 08:46 -7.35369 112.33953 23329 ft 406 kts 147°
2026-05-04 08:46 -7.37697 112.35459 22823 ft 390 kts 147°
2026-05-04 08:46 -7.39963 112.36923 22340 ft 385 kts 147°
2026-05-04 08:47 -7.42202 112.38369 21888 ft 381 kts 147°
2026-05-04 08:47 -7.44427 112.39807 21438 ft 378 kts 147°
2026-05-04 08:47 -7.46637 112.41233 20995 ft 376 kts 147°
2026-05-04 08:47 -7.48837 112.42652 20546 ft 374 kts 147°
2026-05-04 08:48 -7.51020 112.44059 20090 ft 371 kts 147°
2026-05-04 08:48 -7.53189 112.45457 19631 ft 369 kts 147°
2026-05-04 08:48 -7.55344 112.46848 19177 ft 367 kts 147°
2026-05-04 08:48 -7.57489 112.48231 18704 ft 365 kts 147°
2026-05-04 08:49 -7.59621 112.49606 18235 ft 363 kts 147°
2026-05-04 08:50 -7.72259 112.57748 15369 ft 357 kts 147°
2026-05-04 08:50 -7.74326 112.59078 14897 ft 356 kts 147°
2026-05-04 08:51 -7.76432 112.60436 14423 ft 354 kts 147°
2026-05-04 08:51 -7.78454 112.61737 14296 ft 343 kts 147°
2026-05-04 08:51 -7.80433 112.63010 14201 ft 332 kts 147°
2026-05-04 08:51 -7.82353 112.64246 14059 ft 323 kts 147°
2026-05-04 08:52 -7.84214 112.65449 13959 ft 313 kts 147°
2026-05-04 08:52 -7.86018 112.66617 13849 ft 304 kts 147°
2026-05-04 08:52 -7.87774 112.67751 13715 ft 296 kts 147°
2026-05-04 08:52 -7.89484 112.68856 13597 ft 288 kts 147°
2026-05-04 08:53 -7.91147 112.69931 13467 ft 280 kts 147°
2026-05-04 08:54 -8.04273 112.70223 11182 ft 282 kts 185°
2026-05-04 08:55 -8.06203 112.70031 10816 ft 274 kts 185°
2026-05-04 08:55 -8.08071 112.69844 10470 ft 265 kts 185°
2026-05-04 08:55 -8.09878 112.69664 10129 ft 257 kts 185°
2026-05-04 08:55 -8.11639 112.69491 9810 ft 252 kts 185°
2026-05-04 08:57 -8.23443 112.69183 8078 ft 227 kts 149°
2026-05-04 09:01 -8.14784 112.76758 5864 ft 170 kts 347°
2026-05-04 09:01 -8.13630 112.76476 5638 ft 170 kts 347°
2026-05-04 09:01 -8.12477 112.76195 5397 ft 171 kts 347°
2026-05-04 09:01 -8.11321 112.75915 5189 ft 171 kts 347°
2026-05-04 09:02 -8.10183 112.75638 4974 ft 166 kts 347°
2026-05-04 09:02 -8.09055 112.75362 4768 ft 160 kts 347°
2026-05-04 09:02 -8.07996 112.75105 4524 ft 157 kts 347°
2026-05-04 09:02 -8.06939 112.74848 4314 ft 156 kts 347°
2026-05-04 09:03 -8.05890 112.74592 4106 ft 154 kts 347°
2026-05-04 09:03 -8.04849 112.74339 3904 ft 154 kts 347°
2026-05-04 09:03 -8.03806 112.74086 3707 ft 154 kts 347°
2026-05-04 09:03 -8.02758 112.73831 3491 ft 152 kts 347°
2026-05-04 09:04 -8.01740 112.73582 3297 ft 152 kts 347°
2026-05-04 09:04 -8.00713 112.73332 3091 ft 152 kts 348°
2026-05-04 09:04 -7.99678 112.73080 2897 ft 152 kts 351°
2026-05-04 09:04 -7.98678 112.72836 2701 ft 144 kts 351°
2026-05-04 09:05 -7.97723 112.72602 2505 ft 139 kts 349°
2026-05-04 09:05 -7.96797 112.72379 2324 ft 136 kts 348°
2026-05-04 09:05 -7.95883 112.72157 2144 ft 134 kts 348°
2026-05-04 09:05 -7.94968 112.71937 1944 ft 135 kts 347°
2026-05-04 09:06 -7.94048 112.71709 1783 ft 136 kts 348°
2026-05-04 09:07 -7.91913 112.71190 1734 ft 12 kts 165°
2026-05-04 09:08 -7.92050 112.71222 1735 ft 27 kts 167°
2026-05-04 09:08 -7.92230 112.71266 1735 ft 27 kts 166°
2026-05-04 09:08 -7.92416 112.71311 1735 ft 28 kts 166°
2026-05-04 09:08 -7.92611 112.71359 1734 ft 29 kts 166°
2026-05-04 09:09 -7.92815 112.71410 1734 ft 31 kts 166°
2026-05-04 09:09 -7.92995 112.71453 1735 ft 26 kts 167°
2026-05-04 09:09 -7.93179 112.71497 1734 ft 28 kts 166°
2026-05-04 09:09 -7.93369 112.71544 1732 ft 29 kts 166°
2026-05-04 09:10 -7.93499 112.71573 1736 ft 12 kts 181°
2026-05-04 09:10 -7.93536 112.71517 1734 ft 10 kts 258°
2026-05-04 09:10 -7.93557 112.71426 1733 ft 17 kts 256°
2026-05-04 09:10 -7.93581 112.71323 1736 ft 9 kts 256°
2026-05-04 09:11 -7.93599 112.71268 1736 ft 7 kts 232°
2026-05-04 09:11 -7.93641 112.71267 1732 ft 6 kts 167°
2026-05-04 09:11 -7.93678 112.71276 1736 ft 6 kts 165°
2026-05-04 09:11 -7.93695 112.71252 1736 ft 7 kts 256°
2026-05-04 09:12 -7.93702 112.71225 1731 ft 2 kts 256°
2026-05-04 09:12 -7.93704 112.71218 1735 ft 0 kts 256°
2026-05-04 09:14 -7.93704 112.71217 1735 ft 0 kts 256°